Twin Falls, ID

7:34 AM MDT on August 16, 2017 (GMT -0600)
Joslin Field-Magic Valley Regional

Weather History for KTWF - November, 2012

Change the Weather History Date:

Thursday, November 8, 2012

  Actual Average Record
Temperature  
Mean Temperature 51 °F -  
Max Temperature 65 °F 53 °F 74 °F (1980)
Min Temperature 36 °F 30 °F 16 °F (1990)
Degree Days  
Heating Degree Days 14 24  
Month to date heating degree days 94 179  
Since 1 July heating degree days 526 798  
Cooling Degree Days 0 0  
Month to date cooling degree days 0 0  
Year to date cooling degree days 970 680  
Moisture  
Dew Point 32 °F    
Average Humidity 55    
Maximum Humidity 89    
Minimum Humidity 20    
Precipitation  
Precipitation 0.08 in 0.03 in 0.37 in (2002)
Month to date precipitation 0.08 0.31  
Year to date precipitation 7.46 8.56  
Sea Level Pressure  
Sea Level Pressure 29.61 in    
Wind  
Wind Speed 8 mph (SSW)    
Max Wind Speed 35 mph    
Max Gust Speed 43 mph    
Visibility 9 miles    
Events Snow    
T = Trace of Precipitation, MM = Missing Value Source: NWS Daily Summary

Daily Weather History Graph

Daily Weather History Graph

Search for Another Location

Airport or City:

Trip Planner

Search our weather history database for the weather conditions in past years. The results will help you decide how hot, cold, wet, or windy it might be!

Date:

Astronomy

Nov. 08, 2012 Rise Set
Actual Time 7:20 AM MST 5:21 PM MST
Civil Twilight 6:51 AM MST 5:51 PM MST
Nautical Twilight 6:17 AM MST 6:25 PM MST
Astronomical Twilight 5:44 AM MST 6:58 PM MST
Moon 1:13 AM MST (11/8) 2:11 PM MST (11/8)
Length of Visible Light 11h 00m
Length of Day
10h 01m
Waning Crescent, 32% of the Moon is Illuminated
Nov 8
Waning Crescent
Nov 13
New
Nov 20
First Quarter
Nov 28
Full
Dec 6
Last Quarter

Hourly Weather History & Observations

Time (MST) Temp. Windchill Dew Point Humidity Pressure Visibility Wind Dir Wind Speed Gust Speed Precip Events Conditions
12:53 AM 42.1 °F 39.2 °F 34.0 °F 73% 29.76 in 10.0 mi SW 4.6 mph - N/A   Clear
1:53 AM 39.0 °F 34.8 °F 32.0 °F 76% 29.74 in 10.0 mi SSW 5.8 mph - N/A   Clear
2:53 AM 39.0 °F 34.8 °F 32.0 °F 76% 29.71 in 10.0 mi South 5.8 mph - 0.00 in   Clear
3:53 AM 39.9 °F - 33.1 °F 77% 29.68 in 10.0 mi Calm Calm - N/A   Clear
4:53 AM 39.9 °F 37.8 °F 34.0 °F 79% 29.66 in 10.0 mi East 3.5 mph - N/A   Mostly Cloudy
5:53 AM 39.0 °F 36.8 °F 33.1 °F 79% 29.67 in 10.0 mi East 3.5 mph - N/A   Mostly Cloudy
6:53 AM 39.9 °F 35.8 °F 33.1 °F 77% 29.65 in 10.0 mi East 5.8 mph - N/A   Overcast
7:53 AM 39.9 °F 35.1 °F 34.0 °F 79% 29.63 in 10.0 mi ESE 6.9 mph - 0.00 in   Scattered Clouds
8:53 AM 44.1 °F 41.5 °F 35.1 °F 71% 29.62 in 9.0 mi SE 4.6 mph - N/A   Overcast
9:53 AM 45.0 °F 41.2 °F 36.0 °F 71% 29.62 in 8.0 mi NW 6.9 mph - N/A   Overcast
10:53 AM 44.1 °F 40.8 °F 36.0 °F 73% 29.63 in 6.0 mi ESE 5.8 mph - 0.00 in   Haze
11:53 AM 48.0 °F - 36.0 °F 63% 29.58 in 10.0 mi SE 6.9 mph - N/A   Mostly Cloudy
12:53 PM 53.1 °F - 37.0 °F 55% 29.54 in 10.0 mi Calm Calm - N/A   Overcast
1:39 PM 62.6 °F - 26.6 °F 26% 29.58 in 10.0 mi SW 20.7 mph 34.5 mph N/A   Overcast
1:53 PM 62.1 °F - 27.0 °F 26% 29.49 in 10.0 mi SW 19.6 mph 33.4 mph N/A   Overcast
2:53 PM 64.9 °F - 26.1 °F 23% 29.46 in 10.0 mi SW 16.1 mph 23.0 mph N/A   Clear
3:53 PM 64.0 °F - 23.0 °F 21% 29.46 in 10.0 mi WSW 20.7 mph 27.6 mph N/A   Clear
4:20 PM 55.4 °F - 30.2 °F 38% 29.57 in 2.5 mi West 26.5 mph 42.6 mph N/A   Haze
4:27 PM 53.6 °F - 30.2 °F 41% 29.58 in 9.0 mi West 21.9 mph 32.2 mph N/A   Scattered Clouds
4:53 PM 51.1 °F - 30.9 °F 46% 29.52 in 10.0 mi WNW 12.7 mph 20.7 mph N/A   Mostly Cloudy
5:53 PM 48.9 °F - 32.0 °F 52% 29.57 in 10.0 mi North 8.1 mph - N/A   Overcast
6:53 PM 48.9 °F - 33.1 °F 54% 29.56 in 10.0 mi South 11.5 mph - N/A   Overcast
7:51 PM 44.6 °F 37.8 °F 33.8 °F 66% 29.63 in 10.0 mi West 15.0 mph - N/A   Overcast
7:53 PM 44.1 °F 37.4 °F 33.1 °F 65% 29.59 in 10.0 mi West 13.8 mph - N/A   Overcast
8:42 PM 41.0 °F 32.5 °F 33.8 °F 76% 29.66 in 7.0 mi WSW 17.3 mph 24.2 mph N/A   Overcast
8:53 PM 39.9 °F 32.9 °F 35.1 °F 83% 29.61 in 7.0 mi WSW 11.5 mph - 0.01 in   Overcast
9:17 PM 39.2 °F 32.5 °F 33.8 °F 81% 29.66 in 10.0 mi WSW 10.4 mph - N/A   Overcast
9:41 PM 37.4 °F 31.4 °F 33.8 °F 87% 29.67 in 6.0 mi SW 8.1 mph - 0.02 in Snow Light Snow
9:53 PM 37.0 °F 31.0 °F 33.1 °F 86% 29.64 in 4.0 mi South 8.1 mph - 0.03 in Snow Light Snow
10:53 PM 36.0 °F 28.0 °F 32.0 °F 86% 29.60 in 9.0 mi SSE 11.5 mph - 0.04 in Snow Light Snow
11:53 PM 39.0 °F 32.8 °F 30.9 °F 73% 29.58 in 10.0 mi South 9.2 mph - 0.00 in   Overcast